When you browse on this site, cookies collect data to enhance your experience and personalize the content and advertising you see.
Visit our Privacy Policy to learn more. By continuing to use the site, you agree to this use of cookies and data.
EN

Hourly Weather Nashavar

Today, 13 August, Thursday

Time Temperature Precipitation Wind Pressure Humidity
00:00 +35°C° 0.4 mm 1 mps 719 mmHg 57%
01:00 +35°C° 0.4 mm 1 mps 719 mmHg 59%
02:00 +34°C° 0.4 mm 1 mps 719 mmHg 62%
03:00 +34°C° 0.3 mm 1 mps 719 mmHg 64%
04:00 +33°C° 0.3 mm 1 mps 719 mmHg 67%
05:00 +34°C° 0 mm 2 mps 719 mmHg 70%
06:00 +34°C° 0 mm 2 mps 719 mmHg 68%
07:00 +34°C° 0 mm 1 mps 719 mmHg 66%
08:00 +34°C° 0 mm 1 mps 719 mmHg 64%
09:00 +36°C° 0 mm 1 mps 719 mmHg 57%
10:00 +37°C° 0 mm 1 mps 719 mmHg 50%
11:00 +40°C° 0 mm 1 mps 719 mmHg 43%
12:00 +41°C° 0 mm 2 mps 719 mmHg 38%
13:00 +42°C° 0 mm 2 mps 719 mmHg 33%
14:00 +43°C° 0 mm 2 mps 719 mmHg 28%
15:00 +44°C° 0 mm 3 mps 718 mmHg 28%
16:00 +45°C° 0 mm 3 mps 718 mmHg 27%
17:00 +45°C° 0 mm 3 mps 717 mmHg 27%
18:00 +43°C° 0 mm 3 mps 717 mmHg 33%
19:00 +42°C° 0 mm 3 mps 718 mmHg 39%
20:00 +39°C° 0 mm 3 mps 718 mmHg 45%
21:00 +39°C° 0 mm 3 mps 719 mmHg 48%
22:00 +38°C° 0 mm 3 mps 719 mmHg 51%
23:00 +37°C° 0 mm 2 mps 719 mmHg 54%

Tomorrow, 14 August, Friday

Time Temperature Precipitation Wind Pressure Humidity
00:00 +36°C° 0.3 mm 2 mps 719 mmHg 56%
01:00 +36°C° 0.3 mm 2 mps 720 mmHg 59%
02:00 +35°C° 0.3 mm 2 mps 720 mmHg 62%
03:00 +34°C° 0.3 mm 2 mps 719 mmHg 63%
04:00 +34°C° 0.3 mm 2 mps 719 mmHg 65%
05:00 +32°C° 0.3 mm 2 mps 719 mmHg 66%
06:00 +34°C° 0.1 mm 2 mps 720 mmHg 66%
07:00 +34°C° 0.1 mm 2 mps 720 mmHg 66%
08:00 +34°C° 0.1 mm 2 mps 720 mmHg 66%
09:00 +35°C° 0 mm 2 mps 720 mmHg 61%
10:00 +37°C° 0 mm 2 mps 720 mmHg 57%
11:00 +37°C° 0 mm 1 mps 720 mmHg 52%
12:00 +39°C° 0 mm 2 mps 720 mmHg 47%
13:00 +40°C° 0 mm 2 mps 719 mmHg 43%
14:00 +41°C° 0 mm 2 mps 719 mmHg 38%
15:00 +42°C° 0 mm 3 mps 719 mmHg 38%
16:00 +42°C° 0 mm 3 mps 718 mmHg 38%
17:00 +43°C° 0 mm 4 mps 718 mmHg 38%
18:00 +41°C° 0 mm 4 mps 718 mmHg 43%
19:00 +39°C° 0 mm 3 mps 718 mmHg 47%
20:00 +38°C° 0 mm 3 mps 718 mmHg 52%
21:00 +37°C° 0 mm 2 mps 719 mmHg 53%
22:00 +37°C° 0 mm 2 mps 719 mmHg 55%
23:00 +37°C° 0 mm 2 mps 719 mmHg 57%

Day after tomorrow, 15 August, Saturday

Time Temperature Precipitation Wind Pressure Humidity
00:00 +36°C° 0.3 mm 2 mps 719 mmHg 59%
01:00 +35°C° 0.3 mm 2 mps 719 mmHg 61%
02:00 +35°C° 0.3 mm 2 mps 719 mmHg 63%
03:00 +34°C° 0.1 mm 2 mps 719 mmHg 65%
04:00 +34°C° 0.1 mm 2 mps 718 mmHg 67%
05:00 +34°C° 0.1 mm 2 mps 718 mmHg 69%
06:00 +34°C° 0.1 mm 2 mps 718 mmHg 68%
07:00 +34°C° 0.1 mm 2 mps 718 mmHg 66%
08:00 +34°C° 0.1 mm 1 mps 718 mmHg 65%
09:00 +35°C° 0 mm 1 mps 718 mmHg 59%
10:00 +36°C° 0 mm 1 mps 718 mmHg 54%
11:00 +39°C° 0 mm 1 mps 718 mmHg 49%
12:00 +40°C° 0 mm 1 mps 718 mmHg 44%
13:00 +41°C° 0 mm 2 mps 718 mmHg 39%
14:00 +42°C° 0 mm 2 mps 718 mmHg 34%
15:00 +43°C° 0 mm 3 mps 718 mmHg 34%
16:00 +44°C° 0 mm 3 mps 717 mmHg 34%
17:00 +44°C° 0 mm 3 mps 717 mmHg 34%
18:00 +42°C° 0 mm 3 mps 717 mmHg 39%
19:00 +40°C° 0 mm 3 mps 717 mmHg 45%
20:00 +39°C° 0 mm 3 mps 718 mmHg 50%
21:00 +38°C° 0 mm 3 mps 718 mmHg 51%
22:00 +38°C° 0 mm 2 mps 718 mmHg 53%
23:00 +37°C° 0 mm 2 mps 719 mmHg 54%

16 August, Sunday

Time Temperature Precipitation Wind Pressure Humidity
00:00 +37°C° 0.1 mm 2 mps 719 mmHg 56%
01:00 +37°C° 0.1 mm 2 mps 719 mmHg 57%
02:00 +36°C° 0.1 mm 2 mps 718 mmHg 59%
03:00 +36°C° 0.2 mm 2 mps 719 mmHg 60%
04:00 +35°C° 0.2 mm 2 mps 719 mmHg 61%
05:00 +35°C° 0.2 mm 2 mps 719 mmHg 63%
06:00 +35°C° 0.1 mm 2 mps 719 mmHg 62%
07:00 +36°C° 0.1 mm 2 mps 719 mmHg 60%
08:00 +36°C° 0.1 mm 2 mps 719 mmHg 59%
09:00 +36°C° 0 mm 1 mps 719 mmHg 55%
10:00 +37°C° 0 mm 1 mps 719 mmHg 52%
11:00 +40°C° 0 mm 1 mps 719 mmHg 48%
12:00 +41°C° 0 mm 1 mps 719 mmHg 43%
13:00 +42°C° 0 mm 2 mps 719 mmHg 39%
14:00 +43°C° 0 mm 2 mps 718 mmHg 35%
15:00 +43°C° 0 mm 2 mps 718 mmHg 35%
16:00 +44°C° 0 mm 3 mps 718 mmHg 34%
17:00 +44°C° 0 mm 3 mps 717 mmHg 34%
18:00 +43°C° 0 mm 3 mps 718 mmHg 39%
19:00 +42°C° 0 mm 3 mps 718 mmHg 45%
20:00 +39°C° 0 mm 3 mps 718 mmHg 50%
21:00 +39°C° 0 mm 3 mps 718 mmHg 52%
22:00 +38°C° 0 mm 2 mps 719 mmHg 54%
23:00 +38°C° 0 mm 2 mps 719 mmHg 55%

17 August, Monday

Time Temperature Precipitation Wind Pressure Humidity
00:00 +37°C° 0.1 mm 2 mps 719 mmHg 57%
01:00 +37°C° 0.1 mm 2 mps 719 mmHg 58%
02:00 +36°C° 0.1 mm 2 mps 719 mmHg 60%
03:00 +36°C° 0.3 mm 2 mps 719 mmHg 62%
04:00 +35°C° 0.3 mm 2 mps 719 mmHg 64%
05:00 +35°C° 0.3 mm 2 mps 719 mmHg 67%
06:00 +35°C° 0.2 mm 2 mps 719 mmHg 66%
07:00 +35°C° 0.2 mm 2 mps 719 mmHg 65%
08:00 +36°C° 0.2 mm 2 mps 719 mmHg 64%
09:00 +37°C° 0.2 mm 2 mps 719 mmHg 59%
10:00 +38°C° 0.2 mm 2 mps 719 mmHg 55%
11:00 +39°C° 0.2 mm 1 mps 719 mmHg 50%
12:00 +41°C° 0 mm 2 mps 719 mmHg 45%
13:00 +42°C° 0 mm 2 mps 718 mmHg 41%
14:00 +44°C° 0 mm 3 mps 718 mmHg 37%
15:00 +44°C° 0 mm 3 mps 718 mmHg 38%
16:00 +44°C° 0 mm 4 mps 717 mmHg 38%
17:00 +44°C° 0 mm 4 mps 717 mmHg 39%
18:00 +42°C° 0 mm 4 mps 717 mmHg 44%
19:00 +41°C° 0 mm 4 mps 717 mmHg 49%
20:00 +39°C° 0 mm 3 mps 717 mmHg 53%
21:00 +38°C° 0 mm 3 mps 718 mmHg 54%
22:00 +38°C° 0 mm 2 mps 718 mmHg 55%
23:00 +38°C° 0 mm 2 mps 719 mmHg 56%

18 August, Tuesday

Time Temperature Precipitation Wind Pressure Humidity
00:00 +37°C° 0.5 mm 2 mps 718 mmHg 59%
01:00 +36°C° 0.5 mm 2 mps 718 mmHg 62%
02:00 +35°C° 0.5 mm 2 mps 718 mmHg 65%
03:00 +34°C° 0.8 mm 2 mps 718 mmHg 69%
04:00 +34°C° 0.8 mm 2 mps 718 mmHg 74%
05:00 +32°C° 0.8 mm 2 mps 718 mmHg 78%
06:00 +32°C° 0.4 mm 2 mps 718 mmHg 78%
07:00 +32°C° 0.4 mm 2 mps 719 mmHg 77%
08:00 +32°C° 0.4 mm 2 mps 719 mmHg 77%
09:00 +35°C° 0.1 mm 2 mps 719 mmHg 71%
10:00 +36°C° 0.1 mm 2 mps 719 mmHg 65%
11:00 +37°C° 0.1 mm 2 mps 719 mmHg 59%
12:00 +38°C° 0.4 mm 2 mps 719 mmHg 54%
13:00 +40°C° 0.4 mm 2 mps 718 mmHg 50%
14:00 +41°C° 0.4 mm 2 mps 718 mmHg 45%
15:00 +42°C° 0.1 mm 3 mps 717 mmHg 45%
16:00 +42°C° 0.1 mm 3 mps 717 mmHg 45%
17:00 +42°C° 0.1 mm 4 mps 717 mmHg 45%
18:00 +41°C° 0.3 mm 4 mps 717 mmHg 50%
19:00 +40°C° 0.3 mm 4 mps 717 mmHg 54%
20:00 +37°C° 0.3 mm 4 mps 718 mmHg 59%
21:00 +36°C° 1.6 mm 3 mps 718 mmHg 63%
22:00 +35°C° 1.6 mm 3 mps 719 mmHg 68%
23:00 +34°C° 1.6 mm 3 mps 719 mmHg 73%
Show more